STARS (KUKAI)

Satellite information

Favourite Embed

Satellite Type and Status

PAYLOADIN ORBIT

Key statistics

Satellite STARS (KUKAI) at a glance.

Uptime

6009

Days in orbit

Revolutions

≈ 14.9

Per day

Orbit

SSO

Sun Synchronous Orbit

Inclination

98.1

Latest

Satellite identification and parameters

Extended collection of information and parameters for STARS (KUKAI).

Object identification

Identified? True

Debris? False

Object name: STARS (KUKAI)

International designator: 2009-002G

Object number (NORAD): 33498

Object ID (CCSDS): 33498

Country: JAPAN (JPN)

Current information (Y/N): Y

RCS size: MEDIUM

Orbital parameters

Period: 96.514 minutes

Inclination: 98.1238 deg

SMA: 6969.822 km

Apoapsis: 597.137 km

Periapsis: 586.237 km

RAAN: 117.7398 deg

Eccentricy: 0.0007819

Argument of periapsis: 221.8939 deg

Mean anomaly: 138.1681 deg

Mean motion: 14.92004881 rev/day

Mean motion (dot): 0.00003207 rev/day2

B* drag term: 0.00032213 1/REarth

Two-line elements (TLE)

Creation date: July 6, 2025, 10:46 p.m.

Reference frame: TEME

Reference center: EARTH

Epoch: July 6, 2025, 5:59 p.m. UTC

TLE line 0: 0 STARS (KUKAI)

TLE line 1: 1 33498U 09002G 25187.74950179 .00003207 00000-0 32213-3 0 9999

TLE line 2: 2 33498 98.1238 117.7398 0007819 221.8939 138.1681 14.92004881887328

Live tracking on map

Real-time ground track for satellite STARS (KUKAI).

In-orbit conjunctions

There are no conjunctions computed for STARS (KUKAI), at the moment. Check back to stay up to date, as we update our databases every day.

Go to all conjunctions

Associated space launch

Japanese Earth observation satellite. Launched with 7 secondary payloads.

STARS (KUKAI) was lifted into orbit during the mission ‘H-IIA 202 | GOSAT’, on board a H-IIA space rocket.

The launch took place on Jan. 23, 2009, 3:54 a.m. from Yoshinobu Launch Complex LP-1.

For more information about the launch, click the button.

Launch to space H-IIA 202 | GOSAT
H-IIA 202 | GOSAT

Agency: N/A

Status: Launch Successful

Launch date: Jan. 23, 2009, 3:54 a.m. UTC

Rocket: H-IIA

Launch pad: Yoshinobu Launch Complex LP-1

Location: Tanegashima Space Center, Japan

...

Latest news about this satellite

There are no fresh news available about this satellite. Check back as we update our databases every day.


Newsletter sign-up

Weekly statistics, charts and insights to help you stay on top of the space industry.